Terminal Aerodrome Forecast
Issued by NWS Duluth, MN

Home | Current Version | Previous Version | Text Only | Print | Product List | Glossary On
Versions: 1 2 3 4 5 6 7 8 9 10 11 12 13 14 15 16 17 18 19 20 21 22 23 24 25 26 27 28 29 30
000
FTUS43 KDLH 010800 AAA
TAFDLH
TAF AMD
KDLH 010811Z 0108/0206 23008KT P6SM -SN SCT023 BKN035
      TEMPO 0108/0110 5SM -SN BKN025
     FM011000 25009KT P6SM SCT029
     FM011500 27011KT P6SM BKN035
     FM020200 29010KT P6SM SKC=

USA.gov is the U.S. government's official web portal to all federal, state and local government web resources and services.